Location: Domont
(49.0278°N, 2.3264°E)
Time: 16:44:39
(UTC+00:00)

Envisat - Pass Details

Date: 30 January 2022
Orbit: 764 x 765 km, 98.2° (Epoch: 19 May)

Event Time Altitude Azimuth Distance (km) Brightness Sun altitude
Rises 03:28:07 0° 28° (NNE) 3,242 6.8 -38.5°
Reaches altitude 10° 03:31:15 10° 48° (NE) 2,311 6.1 -38.0°
Maximum altitude 03:34:33 17° 88° (E) 1,855 5.5 -37.5°
Drops below altitude 10° 03:37:50 10° 129° (SE) 2,300 5.8 -36.9°
Sets 03:40:56 0° 149° (SSE) 3,221 6.4 -36.5°
